Weather in Azov

Russia / Rostov Oblast     47°06′44″N   39°25′24″E
temp.,
°C
wind,
m/s
gust,
m/s
humid.,
%
clouds,
%
prec.,
mm/h
press.,
hPa
HPBL,
m
14 august, sun
sun1400:00+27ene713364 0.0 1009350
03:00+26ene612370 0.0 1008301
06:00+25e514330 0.0 1009411
09:00+32e712223 0.0 10091157
12:00+37e811141 0.0 10072997
15:00+39e810122 0.0 10053854
18:00+38ese79144 0.0 10043365
21:00+31e49225 0.0 1004136
15 august, mon
mon1500:00+31e7152024 0.0 1004568
03:00+30e7132315 0.0 1005549
06:00+26e614295 0.0 1006419
09:00+33ese8141844 0.0 10061289
12:00+38ese912134 0.0 10052705
15:00+40ese810128 0.0 10043460
18:00+39se781595 0.0 10032866
21:00+31ne2831100 0.0 1004316
16 august, tue
tue1600:00+33ese9161945 0.0 1005765
03:00+29e6132698 0.0 1007488
06:00+27se3730100 0.0 1009280
09:00+28e7933100 0.1 1009409
12:00+33se67309 0.1 10101902
15:00+35se55260 0.1 10092252
18:00+34sw44310 0.0 10081043
21:00+26w49660 0.0 1009195
17 august, wed
wed1700:00+25w48630 0.0 1009170
03:00+24wnw36682 0.0 1009145
06:00+24wsw35654 0.0 1009116
09:00+31w44373 0.0 1009770
12:00+34nw55325 0.0 10091839
15:00+35nw64315 0.0 10081209
18:00+30w564399 0.3 1007358
21:00+26wnw485952 0.8 1007120
18 august, thu
thu1800:00+25wnw486541 0.1 1006162
03:00+23sse1174100 4.3 100714
06:00+23sw3572100 0.6 100692
09:00+28w3352100 0.6 1007533
12:00+34ssw4430100 0.0 10061562
15:00+34wnw4431100 0.0 10051520
18:00+30sse234728 0.6 1006227
21:00+24ese61072100 0.8 1008391